Weather History for Alderney, United Kingdom

Change the Weather History Date:

Sunday, November 13, 2011

  Actual Average Record
Temperature  
Mean Temperature 58 °F -  
Max Temperature 60 °F 50 °F 60 °F (2011)
Min Temperature 55 °F 45 °F 42 °F (2004)
Degree Days  
Heating Degree Days 8    
Growing Degree Days 8 (Base 50)    
Moisture  
Dew Point 53 °F    
Average Humidity 85    
Maximum Humidity 88    
Minimum Humidity 77    
Precipitation  
Precipitation 0.00 in - - ()
Sea Level Pressure  
Sea Level Pressure 30.19 in    
Wind  
Wind Speed 13 mph ()    
Max Wind Speed 17 mph    
Max Gust Speed -    
Averages and records for this station are not official NWS values.
T = Trace of Precipitation, MM = Missing Value Source: Averaged Metar Reports

Daily Weather History Graph

Daily Weather History Graph

Search for Another Location

Airport:

Trip Planner

Search our weather history database for the weather conditions in past years. The results will help you decide how hot, cold, wet, or windy it might be!

Date:

Astronomy

Nov. 13, 2011 Rise Set
Actual Time 7:16 AM GMT 4:28 PM GMT
Civil Twilight 6:41 AM GMT 5:03 PM GMT
Nautical Twilight 6:02 AM GMT 5:42 PM GMT
Astronomical Twilight 5:25 AM GMT 6:20 PM GMT
Moon 6:13 PM GMT (11/13) 9:48 AM GMT (11/13)
Length of Visible Light 10h 22m
Length of Day
9h 12m
Waning Gibbous, 94% of the Moon is Illuminated
Nov 13
Waning Gibbous
Nov 18
Last Quarter
Nov 25
New
Dec 2
First Quarter
Dec 10
Full

Hourly Weather History & Observations

Time (GMT) Temp. Dew Point Humidity Pressure Visibility Wind Dir Wind Speed Gust Speed Precip Events Conditions
8:20 AM 55.4 °F 51.8 °F 88% 30.24 in - ESE 16.1 mph - N/A   Clear
8:50 AM 55.4 °F 51.8 °F 88% 30.21 in - East 15.0 mph - N/A   Clear
9:20 AM 57.2 °F 51.8 °F 82% 30.24 in - ESE 16.1 mph - N/A   Clear
10:20 AM 57.2 °F 53.6 °F 88% 30.21 in - ESE 16.1 mph - N/A   Clear
10:50 AM 57.2 °F 53.6 °F 88% 30.21 in - ESE 17.3 mph - N/A   Clear
11:20 AM 59.0 °F 53.6 °F 82% 30.21 in - ESE 16.1 mph - N/A   Clear
11:50 AM 59.0 °F 53.6 °F 82% 30.21 in - ESE 15.0 mph - N/A   Clear
12:20 PM 59.0 °F 53.6 °F 82% 30.18 in - East 13.8 mph - N/A   Clear
12:50 PM 60.8 °F 53.6 °F 77% 30.18 in - East 13.8 mph - N/A   Clear
1:20 PM 59.0 °F 55.4 °F 88% 30.18 in - East 15.0 mph - N/A   Clear
1:50 PM 57.2 °F 53.6 °F 88% 30.18 in - East 16.1 mph - N/A   Clear
2:20 PM 59.0 °F 53.6 °F 82% 30.18 in - East 12.7 mph - N/A   Clear
2:50 PM 59.0 °F 53.6 °F 82% 30.18 in - East 13.8 mph - N/A   Clear
3:20 PM 59.0 °F 53.6 °F 82% 30.18 in - East 16.1 mph - N/A   Clear
3:50 PM 57.2 °F 53.6 °F 88% 30.18 in - East 13.8 mph - N/A   Clear
4:20 PM 57.2 °F 53.6 °F 88% 30.18 in - East 13.8 mph - N/A   Clear
4:50 PM 57.2 °F 53.6 °F 88% 30.18 in - East 12.7 mph - N/A   Clear
5:20 PM 57.2 °F 53.6 °F 88% 30.18 in - East 12.7 mph - N/A   Clear
6:20 PM 57.2 °F 53.6 °F 88% 30.18 in - East 13.8 mph - N/A   Clear